Robstown, TX

1:07 AM CST on February 14, 2016 (GMT -0600)
Robstown

Weather History for KRBO - June, 2014

Change the Weather History Date:

Tuesday, June 17, 2014

  Actual Average (KCRP) Record (KCRP)
Temperature  
Mean Temperature 86 °F 83 °F  
Max Temperature 94 °F 91 °F 98 °F (2013)
Min Temperature 80 °F 74 °F 63 °F (1989)
Degree Days  
Heating Degree Days 0 0  
Month to date heating degree days 0  
Since 1 June heating degree days 0  
Since 1 July heating degree days 898  
Cooling Degree Days 22 18  
Month to date cooling degree days 286  
Year to date cooling degree days 1127  
Since 1 June cooling degree days 286  
Growing Degree Days 36 (Base 50)    
Moisture  
Dew Point 74 °F    
Average Humidity 69    
Maximum Humidity 85    
Minimum Humidity 48    
Precipitation  
Precipitation 0.00 in 0.10 in 1.41 in (1963)
Month to date precipitation 1.81  
Year to date precipitation 12.08  
Snow  
Snow 0.00 in - - ()
Month to date snowfall  
Since 1 June snowfall  
Since 1 July snowfall  
Snow Depth -    
Sea Level Pressure  
Sea Level Pressure 29.97 in    
Wind  
Wind Speed 16 mph (SE)    
Max Wind Speed 22 mph    
Max Gust Speed 31 mph    
Visibility 10 miles    
Events      
T = Trace of Precipitation, MM = Missing Value Source: NWS Daily Summary

Daily Weather History Graph

Daily Weather History Graph

Search for Another Location

Airport or City:

Trip Planner

Search our weather history database for the weather conditions in past years. The results will help you decide how hot, cold, wet, or windy it might be!

Date:

Astronomy

Jun. 17, 2014 Rise Set
Actual Time 6:34 AM CDT 8:28 PM CDT
Civil Twilight 6:08 AM CDT 8:55 PM CDT
Nautical Twilight 5:35 AM CDT 9:27 PM CDT
Astronomical Twilight 5:01 AM CDT 10:01 PM CDT
Moon No Moon Rise 11:27 AM CDT (6/17)
Length of Visible Light 14h 47m
Length of Day
13h 53m
Waning Gibbous, 73% of the Moon is Illuminated
Jun 17
Waning Gibbous
Jun 19
Last Quarter
Jun 27
New
Jul 5
First Quarter
Jul 12
Full

Hourly Weather History & Observations

Time (CDT) Temp. Heat Index Dew Point Humidity Pressure Visibility Wind Dir Wind Speed Gust Speed Precip Events Conditions
12:15 AM 82.6 °F 90.8 °F 76.6 °F 82% 29.99 in 10.0 mi SSE 16.1 mph - N/A   Mostly Cloudy
12:35 AM 82.6 °F 90.8 °F 76.5 °F 82% 29.99 in 10.0 mi SSE 15.0 mph - N/A   Scattered Clouds
12:55 AM 82.4 °F 90.3 °F 76.3 °F 82% 29.99 in 10.0 mi SSE 15.0 mph - N/A   Scattered Clouds
1:15 AM 82.6 °F 90.5 °F 76.3 °F 81% 29.99 in 10.0 mi SSE 12.7 mph 19.6 mph N/A   Mostly Cloudy
1:35 AM 82.6 °F 90.8 °F 76.5 °F 82% 29.98 in 10.0 mi SSE 12.7 mph - N/A   Mostly Cloudy
1:55 AM 82.4 °F 90.3 °F 76.5 °F 82% 29.98 in 10.0 mi SSE 16.1 mph 23.0 mph N/A   Scattered Clouds
2:15 AM 82.4 °F 90.1 °F 75.9 °F 81% 29.98 in 10.0 mi SSE 13.8 mph - N/A   Scattered Clouds
2:35 AM 82.0 °F 89.4 °F 76.1 °F 82% 29.98 in 10.0 mi SSE 16.1 mph - N/A   Scattered Clouds
2:55 AM 81.9 °F 88.7 °F 75.4 °F 81% 29.97 in 10.0 mi SSE 15.0 mph 20.7 mph N/A   Scattered Clouds
3:15 AM 81.9 °F 88.7 °F 75.4 °F 81% 29.97 in 10.0 mi SSE 15.0 mph 19.6 mph N/A   Scattered Clouds
3:35 AM 81.9 °F 88.7 °F 75.4 °F 81% 29.97 in 10.0 mi SSE 15.0 mph 23.0 mph N/A   Scattered Clouds
3:55 AM 81.9 °F 88.7 °F 75.6 °F 81% 29.97 in 10.0 mi SSE 15.0 mph 23.0 mph N/A   Mostly Cloudy
4:15 AM 81.9 °F 88.7 °F 75.6 °F 81% 29.97 in 10.0 mi SSE 12.7 mph 20.7 mph N/A   Overcast
4:35 AM 81.7 °F 88.3 °F 75.4 °F 81% 29.97 in 10.0 mi SSE 16.1 mph 25.3 mph N/A   Mostly Cloudy
4:55 AM 81.5 °F 88.0 °F 75.4 °F 82% 29.98 in 10.0 mi SSE 16.1 mph 24.2 mph N/A   Mostly Cloudy
5:15 AM 81.1 °F 87.4 °F 75.4 °F 83% 29.98 in 10.0 mi SSE 15.0 mph 19.6 mph N/A   Mostly Cloudy
5:35 AM 81.0 °F 86.9 °F 75.4 °F 83% 29.99 in 10.0 mi SSE 11.5 mph - N/A   Mostly Cloudy
5:55 AM 81.0 °F 87.1 °F 75.6 °F 84% 29.99 in 10.0 mi SSE 12.7 mph - N/A   Overcast
6:15 AM 81.0 °F 87.1 °F 75.6 °F 84% 30.00 in 10.0 mi SSE 12.7 mph - N/A   Overcast
6:35 AM 80.6 °F 86.4 °F 75.7 °F 85% 30.00 in 7.0 mi SSE 11.5 mph 18.4 mph N/A   Mostly Cloudy
6:55 AM 80.6 °F 86.4 °F 75.7 °F 85% 30.00 in 7.0 mi SSE 12.7 mph - N/A   Scattered Clouds
7:35 AM 81.5 °F 88.0 °F 75.6 °F 82% 30.00 in 7.0 mi SSE 13.8 mph - N/A   Clear
7:55 AM 82.4 °F 89.8 °F 75.6 °F 80% 30.01 in 7.0 mi SSE 15.0 mph - N/A   Clear
8:15 AM 83.1 °F 91.0 °F 75.7 °F 78% 30.01 in 7.0 mi SSE 12.7 mph - N/A   Scattered Clouds
8:35 AM 83.7 °F 91.7 °F 75.4 °F 76% 30.02 in 7.0 mi SSE 13.8 mph 20.7 mph N/A   Scattered Clouds
8:55 AM 85.1 °F 93.7 °F 75.0 °F 72% 30.03 in 7.0 mi South 13.8 mph - N/A   Mostly Cloudy
9:15 AM 85.8 °F 94.2 °F 74.7 °F 69% 30.03 in 10.0 mi SSE 13.8 mph 19.6 mph N/A   Mostly Cloudy
9:35 AM 86.9 °F 95.4 °F 74.1 °F 66% 30.02 in 10.0 mi SSE 15.0 mph - N/A   Mostly Cloudy
9:55 AM 87.1 °F 94.1 °F 72.7 °F 62% 30.02 in 7.0 mi SSE 17.3 mph - N/A   Scattered Clouds
10:15 AM 87.8 °F 93.8 °F 71.4 °F 58% 30.02 in 10.0 mi SSE 15.0 mph 21.9 mph N/A   Clear
10:35 AM 88.5 °F 94.9 °F 71.8 °F 57% 30.01 in 10.0 mi SSE 17.3 mph 21.9 mph N/A   Clear
10:55 AM 89.2 °F 96.4 °F 72.3 °F 57% 30.00 in 10.0 mi South 13.8 mph - N/A   Scattered Clouds
11:15 AM 90.5 °F 97.0 °F 71.1 °F 53% 30.00 in 10.0 mi South 17.3 mph 27.6 mph N/A   Scattered Clouds
11:35 AM 91.0 °F 98.7 °F 72.3 °F 54% 30.00 in 10.0 mi SE 13.8 mph 23.0 mph N/A   Scattered Clouds
11:55 AM 91.2 °F 99.7 °F 72.9 °F 55% 29.99 in 10.0 mi SSE 18.4 mph 21.9 mph N/A   Scattered Clouds
12:15 PM 92.1 °F 99.9 °F 72.3 °F 52% 30.00 in 10.0 mi SSE 16.1 mph 23.0 mph N/A   Scattered Clouds
12:35 PM 91.8 °F 99.1 °F 72.1 °F 52% 29.99 in 10.0 mi SSE 19.6 mph 25.3 mph N/A   Scattered Clouds
12:55 PM 92.3 °F 99.7 °F 71.8 °F 51% 29.98 in 10.0 mi SSE 17.3 mph 23.0 mph N/A   Scattered Clouds
1:15 PM 92.3 °F 99.7 °F 71.8 °F 51% 29.98 in 10.0 mi SE 18.4 mph 26.5 mph N/A   Scattered Clouds
1:55 PM 92.8 °F 100.3 °F 71.8 °F 50% 29.96 in 10.0 mi SSE 18.4 mph 28.8 mph N/A   Scattered Clouds
2:15 PM 93.9 °F 101.5 °F 71.4 °F 48% 29.95 in 10.0 mi SSE 17.3 mph 26.5 mph N/A   Scattered Clouds
2:35 PM 93.4 °F 102.1 °F 72.9 °F 51% 29.94 in 10.0 mi SE 19.6 mph 26.5 mph N/A   Scattered Clouds
2:55 PM 92.8 °F 101.5 °F 72.7 °F 52% 29.94 in 10.0 mi SE 18.4 mph 24.2 mph N/A   Scattered Clouds
3:15 PM 93.2 °F 100.5 °F 71.6 °F 49% 29.93 in 10.0 mi SE 17.3 mph 26.5 mph N/A   Scattered Clouds
3:35 PM 93.4 °F 100.9 °F 71.6 °F 49% 29.92 in 10.0 mi SE 18.4 mph 26.5 mph N/A   Clear
3:55 PM 93.2 °F 99.9 °F 70.9 °F 48% 29.92 in 10.0 mi SE 19.6 mph 27.6 mph N/A   Clear
4:15 PM 92.7 °F 99.9 °F 71.6 °F 50% 29.92 in 10.0 mi SE 21.9 mph 28.8 mph N/A   Clear
4:35 PM 91.9 °F 99.0 °F 71.2 °F 51% 29.92 in 10.0 mi SE 21.9 mph 27.6 mph N/A   Clear
4:55 PM 91.6 °F 98.2 °F 71.2 °F 51% 29.91 in 10.0 mi SE 18.4 mph 26.5 mph N/A   Clear
5:15 PM 91.4 °F 97.3 °F 70.5 °F 50% 29.91 in 10.0 mi SE 19.6 mph 26.5 mph N/A   Clear
5:35 PM 90.5 °F 97.5 °F 71.6 °F 54% 29.91 in 10.0 mi SE 19.6 mph 31.1 mph N/A   Clear
5:55 PM 89.8 °F 97.0 °F 72.3 °F 56% 29.92 in 10.0 mi SE 21.9 mph 27.6 mph N/A   Clear
6:15 PM 88.9 °F 96.6 °F 72.7 °F 59% 29.91 in 10.0 mi SE 19.6 mph 28.8 mph N/A   Clear
6:35 PM 88.0 °F 95.6 °F 73.0 °F 61% 29.91 in 10.0 mi SE 19.6 mph 28.8 mph N/A   Clear
6:55 PM 87.6 °F 94.8 °F 72.9 °F 61% 29.92 in 10.0 mi SSE 20.7 mph 26.5 mph N/A   Clear
7:15 PM 86.5 °F 93.8 °F 73.2 °F 64% 29.92 in 10.0 mi SE 18.4 mph 26.5 mph N/A   Clear
7:35 PM 86.0 °F 93.8 °F 73.8 °F 67% 29.92 in 10.0 mi SE 15.0 mph 26.5 mph N/A   Clear
7:55 PM 84.9 °F 92.1 °F 73.8 °F 69% 29.92 in 10.0 mi SE 13.8 mph 26.5 mph N/A   Clear
8:15 PM 83.8 °F 91.1 °F 74.3 °F 73% 29.93 in 10.0 mi SE 18.4 mph 23.0 mph N/A   Clear
8:35 PM 83.3 °F 90.8 °F 74.8 °F 76% 29.93 in 10.0 mi SE 16.1 mph 23.0 mph N/A   Clear
8:55 PM 82.6 °F 89.7 °F 75.2 °F 78% 29.93 in 10.0 mi SE 17.3 mph - N/A   Scattered Clouds
9:15 PM 82.4 °F 89.8 °F 75.6 °F 80% 29.94 in 10.0 mi SE 12.7 mph 23.0 mph N/A   Scattered Clouds
9:35 PM 82.4 °F 90.1 °F 75.9 °F 81% 29.94 in 10.0 mi SE 13.8 mph 20.7 mph N/A   Scattered Clouds
9:55 PM 82.4 °F 90.1 °F 76.1 °F 81% 29.96 in 10.0 mi SE 12.7 mph 20.7 mph N/A   Scattered Clouds
10:15 PM 82.2 °F 89.9 °F 76.1 °F 82% 29.96 in 10.0 mi SE 12.7 mph - N/A   Mostly Cloudy
10:35 PM 82.4 °F 90.1 °F 76.1 °F 81% 29.97 in 10.0 mi SE 13.8 mph 23.0 mph N/A   Mostly Cloudy
10:55 PM 82.4 °F 90.1 °F 76.1 °F 81% 29.97 in 10.0 mi SE 15.0 mph 21.9 mph N/A   Mostly Cloudy
11:15 PM 82.6 °F 90.5 °F 76.3 °F 81% 29.97 in 10.0 mi SE 15.0 mph 20.7 mph N/A   Mostly Cloudy
11:35 PM 82.6 °F 90.8 °F 76.5 °F 82% 29.98 in 10.0 mi SE 16.1 mph 20.7 mph N/A   Mostly Cloudy
11:55 PM 82.4 °F 90.6 °F 76.6 °F 83% 29.97 in 10.0 mi SE 13.8 mph 18.4 mph N/A   Mostly Cloudy